Regional Weather Roundup
Issued by NWS

Home | Current Version | Previous Version | Text Only | Print | Product List | Glossary On
Versions: 1 2 3 4 5 6 7 8 9 10 11 12 13 14 15 16 17 18 19 20 21 22 23 24 25 26 27 28 29 30 31 32 33 34 35 36 37 38 39 40 41 42 43 44 45 46 47 48 49 50
000
ASUS43 KOAX 121102
RWRNE

WEATHER ROUNDUP FOR NEBRASKA
NATIONAL WEATHER SERVICE OMAHA NE
500 AM CST FRI FEB 12 2016

NOTES: SATELLITE DATA IS BEING USED TO AUGMENT CLOUD COVER ABOVE
       12000 FEET.
       "FAIR" INDICATES FEW OR NO CLOUDS BELOW 12,000 FEET WITH NO
       SIGNIFICANT WEATHER AND/OR OBSTRUCTIONS TO VISIBILITY.

  * THESE STATIONS DO NOT REPORT WEATHER SUCH AS RAIN...SNOW OR FOG.

NEZ001>004-019>022-054>056-121200-
NEBRASKA PANHANDLE

CITY           SKY/WX    TMP DP  RH WIND       PRES   REMARKS
SCOTTSBLUFF    CLOUDY    30  26  85 NW6       30.27R WCI  24
ALLIANCE       CLOUDY    24  20  84 W8        30.24R WCI  15
CHADRON        PTCLDY    22  20  92 CALM      30.28R
KIMBALL        CLOUDY    33  28  79 W9        30.27R WCI  26
SIDNEY         CLOUDY    31  27  85 W10       30.27R WCI  22
$$

NEZ057>060-069>072-079>082-121200-
SOUTHWEST NEBRASKA

CITY           SKY/WX    TMP DP  RH WIND       PRES   REMARKS
NORTH PLATTE   CLOUDY    23  21  92 CALM      30.28R
IMPERIAL       CLEAR     28  23  81 W3        30.27S
LEXINGTON      CLOUDY    32  29  89 NW6       30.29R WCI  27
MCCOOK         CLEAR     27  24  89 W9        30.29R WCI  18
$$

NEZ005>010-023>029-035>040-094-121200-
NORTH CENTRAL NEBRASKA

CITY           SKY/WX    TMP DP  RH WIND       PRES   REMARKS
VALENTINE      CLOUDY    30  27  88 N12       30.29R WCI  20
AINSWORTH      CLOUDY    31  28  88 NW8       30.29R WCI  23
BROKEN BOW     CLOUDY    31  28  89 N10       30.28R WCI  22
ORD            CLOUDY    26  23  88 N7        30.30R WCI  18
$$

NEZ041-046>049-061>064-073>077-083>087-121200-
SOUTH CENTRAL NEBRASKA

CITY           SKY/WX    TMP DP  RH WIND       PRES   REMARKS
GRAND ISLAND   CLOUDY    28  24  85 N14       30.32R WCI  17
AURORA         CLOUDY    28  26  91 N15G22    30.30R WCI  16
HASTINGS       CLOUDY    28  23  81 N17       30.30R WCI  16
HEBRON         CLOUDY    29  26  89 N5        30.32R WCI  24
KEARNEY *      CLOUDY    30  27  86 N10       30.30R WCI  21
YORK           CLOUDY    27  25  93 N13G22    30.30R WCI  16
$$

NEZ011>018-030>034-042>045-121200-
NORTHEAST NEBRASKA

CITY           SKY/WX    TMP DP  RH WIND       PRES   REMARKS
NORFOLK        CLOUDY    24  20  84 N12       30.31R WCI  13
ALBION         CLOUDY    26  22  85 NW6       30.30R WCI  19
BLAIR          MOCLDY    21  18  89 N17       30.29R WCI   6
COLUMBUS *     CLOUDY    25  14  63 N14       30.32R WCI  13
FREMONT        MOCLDY    22  18  84 N7        30.31R WCI  13
TEKAMAH        CLOUDY    19  15  84 NW12      30.34R WCI   7
$$

NEZ050>053-065>068-078-088>093-121200-
SOUTHEAST NEBRASKA

CITY           SKY/WX    TMP DP  RH WIND       PRES   REMARKS
LINCOLN        CLOUDY    28  23  81 N17       30.32R WCI  16
OMAHA EPPLEY   MOCLDY    22  18  85 N17       30.31R WCI   8
BEATRICE       CLOUDY    28  25  86 N17       30.30R WCI  16
FALLS CITY     CLOUDY    30  22  72 N5        30.27R WCI  25
NEBRASKA CITY  CLOUDY    28  24  87 N9        30.28R WCI  19
PLATTSMOUTH    CLOUDY    25  21  84 N13       30.28R WCI  14
$$

NEZ044-045-051>053-067-121200-
OMAHA AREA

CITY           SKY/WX    TMP DP  RH WIND       PRES   REMARKS
OMAHA EPPLEY   MOCLDY    22  18  85 N17       30.31R WCI   8
BLAIR          MOCLDY    21  18  89 N17       30.29R WCI   6
FREMONT        MOCLDY    22  18  84 N7        30.31R WCI  13
OFFUTT AFB     CLOUDY    25  20  83 N10       30.30R WCI  15
PLATTSMOUTH    CLOUDY    25  21  84 N13       30.28R WCI  14
WAHOO          FAIR      24  20  86 N15G21    30.31R WCI  11
$$



USA.gov is the U.S. government's official web portal to all federal, state and local government web resources and services.